Location: Unspecified
(48.8656°N, 0.0000°E)
Time: 18:56:31
(UTC+00:00)

Vanguard 1 - Visible Passes

Search period start: 12 June 2021 00:00
Search period end: 22 June 2021 00:00
Orbit: 650 x 3832 km, 34.2° (Epoch: 12 June)

Date Brightness Start Highest point End Pass type
(mag) Time Alt. Az. Time Alt. Az. Time Alt. Az.
12 Jun 11.6 02:18:04 10° WSW 02:29:25 34° SSW 02:36:13 10° SE visible
12 Jun 12.7 21:51:19 10° SSW 22:07:10 29° SSE 22:18:04 10° ESE visible
13 Jun 12.0 00:13:57 10° WSW 00:29:19 39° S 00:38:25 10° ESE visible
13 Jun 11.6 02:39:14 10° WSW 02:49:59 31° SSW 02:56:34 10° SE visible
13 Jun 12.6 22:11:00 10° SW 22:28:02 34° SSE 22:39:17 10° ESE visible
14 Jun 11.9 00:34:47 10° WSW 00:50:08 41° S 00:59:05 10° ESE visible
14 Jun 11.7 03:00:32 10° WSW 03:10:28 28° SSW 03:16:45 10° SSE visible
14 Jun 12.5 22:31:06 10° SW 22:48:55 38° SSE 23:00:17 10° ESE visible
15 Jun 11.9 00:55:46 10° WSW 01:10:53 41° S 01:19:40 10° ESE visible
15 Jun 13.1 20:30:11 10° SSW 20:46:56 28° SSE 20:59:37 10° E visible
15 Jun 12.3 22:51:31 10° SW 23:09:48 41° S 23:21:11 10° ESE visible
16 Jun 11.9 01:16:54 10° WSW 01:31:35 39° SSW 01:40:09 10° SE visible
16 Jun 12.9 20:49:28 10° SSW 21:07:44 33° SSE 21:21:05 10° E visible
16 Jun 12.3 23:12:12 10° WSW 23:30:41 44° S 23:41:57 10° ESE visible
17 Jun 11.9 01:38:09 10° WSW 01:52:12 37° SSW 02:00:32 10° SE visible
17 Jun 12.8 21:09:14 10° SW 21:28:35 38° SSE 21:42:17 10° E visible
17 Jun 12.2 23:33:04 10° WSW 23:51:32 45° S 00:02:39 10° ESE visible
18 Jun 12.0 01:59:30 10° W 02:12:42 33° SSW 02:20:44 10° SSE visible
18 Jun 12.7 21:29:23 10° SW 21:49:28 42° SSE 22:03:19 10° E visible
18 Jun 12.2 23:54:07 10° WSW 00:12:22 45° S 00:23:15 10° ESE visible
19 Jun 12.1 02:20:59 10° W 02:33:05 29° SSW 02:40:44 10° SSE visible
19 Jun 12.6 21:49:50 10° SW 22:10:23 45° S 22:24:13 10° ESE visible
20 Jun 12.2 00:15:16 10° WSW 00:33:07 44° SSW 00:43:46 10° SE visible
20 Jun 12.2 02:42:41 10° W 02:53:20 24° SW 03:00:27 10° S visible
20 Jun 12.6 22:10:31 10° WSW 22:31:18 48° S 22:45:02 10° ESE visible
21 Jun 12.2 00:36:32 10° W 00:53:47 41° SSW 01:04:09 10° SE visible
21 Jun 12.4 03:04:46 10° W 03:13:27 19° SW 03:19:42 10° S visible
21 Jun 12.5 22:31:23 10° WSW 22:52:12 49° S 23:05:45 10° ESE visible
